Regional Weather Roundup
Issued by NWS Green Bay, WI

Home | Current Version | Previous Version | Graphics & Text | Print | Product List | Glossary Off
Versions: 1 2 3 4 5 6 7 8 9 10 11 12 13 14 15 16 17 18 19 20 21 22 23 24 25 26 27 28 29 30 31 32 33 34 35 36 37 38 39 40 41 42 43 44 45 46 47 48 49 50

000
ASUS43 KGRB 240201
RWRGRB

NORTH-CENTRAL AND NORTHEAST WISCONSIN REGIONAL WEATHER ROUNDUP
NATIONAL WEATHER SERVICE GREEN BAY WI
900 PM CDT SUN JUL 23 2017

WIZ005-009-010>012-018-019-240300-
NORTH CENTRAL WISCONSIN

CITY           SKY/WX    TMP DP  RH WIND       PRES   REMARKS
IRONWOOD       CLOUDY    58  57  97 N5        30.03R
MANITOWISH WTR NOT AVBL
ARBOR VITAE    NOT AVBL
EAGLE RIVER    NOT AVBL
LAND O LAKES   NOT AVBL
RHINELANDER    MOCLDY    60  56  86 N3        30.01R
PHILLIPS       CLOUDY    61  59  92 N6        30.00R
ANTIGO         NOT AVBL
TOMAHAWK       NOT AVBL
MERRILL        NOT AVBL
$$

WIZ013-073-240300-
NORTHEAST WISCONSIN

CITY           SKY/WX    TMP DP  RH WIND       PRES   REMARKS
IRON MOUNTAIN  MOCLDY    60  52  74 N6        29.97R
MARINETTE      CLOUDY    63  56  78 N8        29.95R
$$

WIZ017-030-035>037-045-240300-
CENTRAL WISCONSIN

CITY           SKY/WX    TMP DP  RH WIND       PRES   REMARKS
MEDFORD        NOT AVBL
WAUSAU         CLOUDY    65  54  67 N7        29.95R
MOSINEE        MOCLDY    66  57  72 NE10G18   29.96R
MARSHFIELD     PTCLDY    65  56  72 N9        29.95R
WISC RAPIDS    CLEAR     68  59  73 N9G18     29.94R
STEVENS POINT  NOT AVBL
WAUPACA        NOT AVBL
SHAWANO        NOT AVBL
CLINTONVILLE   NOT AVBL
WAUTOMA        CLOUDY    72  59  63 N14G23    29.91R
$$

WIZ038-039-048-051-240300-
FOX VALLEY

CITY           SKY/WX    TMP DP  RH WIND       PRES   REMARKS
NWS GREEN BAY  CLOUDY    65  58  78 N14       29.93R
APPLETON       PTCLDY    64  54  68 NE14G22   29.90R
OSHKOSH        CLOUDY    69  59  70 N16G26    29.90R
FOND DU LAC    CLOUDY    70  61  73 NE18G25   29.90R
$$

WIZ022-050-052-240300-
EAST CENTRAL WISCONSIN

CITY           SKY/WX    TMP DP  RH WIND       PRES   REMARKS
EPHRAIM        NOT AVBL
WASHINGTON ISL NOT AVBL
STURGEON BAY     N/A     64  59  83 N18G24    29.93R
MANITOWOC      NOT AVBL
SHEBOYGAN      CLOUDY    67  64  90 NE9       29.89R
$$

LMZ563-521-522-541>543-240300-
LAKESHORE

STATION/POSITION TIME  TEMP    WIND        PRES    VSBY  WAVE
                       AIR SEA DIR/SP/G                  HT/PER
                 (UTC) (F)     (DEG/KT/KT) (MB)    (MI)  (FT/S)
SHEBOYGAN LKSHOR 0100   67      30/ 18/ 20 1010.5R
KEWAUNEE LKSHORE 0130   65     360/  7/ 12 1011.7R
NORTHPORT PIER   0140   64      20/ 14/ 19 1012.9R
S GREEN BAY BUOY 0130   66 72  350/ 19/ 23 1012.7R
SISTER BAY LKSHO 0117   64       0/ 14/ 19   N/A
CHAMBERS ISLAND  0140   65     350/ 17/ 23 1012.2R
MENOMINEE LKSHOR 0130   64     360/ 18/ 22 1013.0R
$$




USA.gov is the U.S. government's official web portal to all federal, state and local government web resources and services.